contact:dominique.lefevre@mio.osupytheas.fr, maurice.libes@osupytheas.fr, didier.mallarino@osupytheas.fr
Project:EMSO http://www.emso-fr.org/EMSO-France
Depth: 2436.0 m
Title:EMSO Ligure Ouest : Data MII capteur AQUADOPP
Date,Latitude,Longitude,X_East,Y_North,Z_Up,Amplitude_X,Amplitude_Y,Amplitude_Z,Batterie,SoundSpeed,Heading,Pitch,Roll,Pressure,TIS,Speed,Direction
, degrees North, degrees East, m.s-1, m.s-1,m.s-1, 1, 1, 1, Volt, m.s-1, degree, degree, degree, dbar, degree_C, m.s-1, degree
2020-09-21T00:04:02,42.805,6.029,0.016,-0.049,0.014,108.0,109.0,104.0,13.3,1505.2,327.9,-0.7,1.8,2470.465,13.3,0.051,161.9
2020-09-21T00:07:02,42.805,6.029,0.02,-0.054,0.002,109.0,108.0,104.0,13.3,1505.3,326.6,-0.7,1.8,2470.46,13.31,0.057,159.7
2020-09-21T00:10:02,42.805,6.029,0.0,-0.04,-0.051,108.0,108.0,105.0,13.3,1505.3,324.9,-0.7,1.8,2470.446,13.32,0.04,180.0
2020-09-21T00:13:03,42.805,6.029,0.019,-0.032,0.005,106.0,109.0,105.0,13.3,1505.3,326.0,-0.7,1.9,2470.44,13.32,0.037,149.3
2020-09-21T00:16:03,42.805,6.029,0.026,-0.04,0.015,108.0,108.0,104.0,13.4,1505.3,325.4,-0.7,1.9,2470.471,13.32,0.047,147.0
2020-09-21T00:19:03,42.805,6.029,0.019,-0.041,0.011,108.0,108.0,105.0,13.4,1505.3,327.3,-0.7,1.8,2470.409,13.32,0.045,155.1
2020-09-21T00:22:03,42.805,6.029,0.012,-0.044,0.0,108.0,108.0,103.0,13.4,1505.3,326.8,-0.7,1.8,2470.417,13.32,0.045,164.7
2020-09-21T00:25:03,42.805,6.029,0.006,-0.026,0.012,107.0,109.0,104.0,13.3,1505.3,326.2,-0.7,1.8,2470.44,13.32,0.026,167.0
2020-09-21T00:28:03,42.805,6.029,0.042,-0.022,-0.004,108.0,108.0,104.0,13.4,1505.3,324.1,-0.7,1.8,2470.415,13.32,0.047,117.6
2020-09-21T00:31:03,42.805,6.029,0.009,-0.043,-0.051,109.0,109.0,105.0,13.4,1505.3,325.0,-0.7,1.9,2470.423,13.32,0.043,168.2
2020-09-21T00:34:02,42.805,6.029,0.035,-0.025,0.029,108.0,108.0,105.0,13.4,1505.3,326.3,-0.7,1.8,2470.438,13.32,0.043,125.5
2020-09-21T00:37:03,42.805,6.029,0.024,-0.055,0.006,106.0,109.0,104.0,13.4,1505.3,322.7,-0.7,1.8,2470.405,13.32,0.06,156.4
2020-09-21T00:40:02,42.805,6.029,-0.014,-0.032,-0.015,107.0,107.0,104.0,13.3,1505.3,325.9,-0.7,1.8,2470.412,13.32,0.034,203.6
2020-09-21T00:43:03,42.805,6.029,0.039,-0.024,-0.016,107.0,108.0,104.0,13.4,1505.3,324.9,-0.7,1.9,2470.407,13.32,0.045,121.6
2020-09-21T00:46:03,42.805,6.029,0.028,-0.03,-0.017,107.0,109.0,104.0,13.4,1505.3,324.8,-0.7,1.9,2470.435,13.32,0.041,137.0
2020-09-21T00:49:03,42.805,6.029,0.029,-0.022,0.006,108.0,109.0,106.0,13.4,1505.3,323.5,-0.7,1.8,2470.418,13.32,0.036,127.2
2020-09-21T00:52:03,42.805,6.029,0.037,-0.02,0.0,107.0,107.0,105.0,13.3,1505.3,323.7,-0.7,1.9,2470.395,13.32,0.042,118.4
2020-09-21T00:55:03,42.805,6.029,0.009,-0.041,-0.037,109.0,108.0,104.0,13.3,1505.3,325.8,-0.7,1.8,2470.354,13.32,0.041,167.6
2020-09-21T00:58:03,42.805,6.029,0.007,-0.021,-0.008,107.0,109.0,104.0,13.4,1505.3,322.7,-0.7,1.9,2470.397,13.32,0.022,161.6
2020-09-21T01:04:03,42.805,6.029,0.011,-0.029,-0.013,107.0,109.0,104.0,13.3,1505.3,327.4,-0.7,1.8,2470.431,13.31,0.031,159.2
2020-09-21T01:07:03,42.805,6.029,0.045,-0.051,-0.015,107.0,108.0,104.0,13.3,1505.3,325.2,-0.7,1.8,2470.418,13.31,0.068,138.6
2020-09-21T01:10:03,42.805,6.029,0.01,-0.041,-0.006,108.0,108.0,104.0,13.4,1505.3,323.6,-0.7,1.9,2470.42,13.32,0.042,166.3
2020-09-21T01:13:03,42.805,6.029,-0.004,-0.03,0.003,107.0,110.0,105.0,13.4,1505.3,324.6,-0.7,1.8,2470.393,13.32,0.03,187.6
2020-09-21T01:16:03,42.805,6.029,0.033,-0.031,-0.021,107.0,107.0,105.0,13.4,1505.3,325.9,-0.8,1.8,2470.373,13.32,0.045,133.2
2020-09-21T01:19:03,42.805,6.029,0.011,-0.038,0.008,108.0,109.0,104.0,13.4,1505.3,324.5,-0.7,1.8,2470.356,13.32,0.039,163.9
2020-09-21T01:22:02,42.805,6.029,0.006,-0.03,-0.003,108.0,109.0,104.0,13.4,1505.3,324.3,-0.7,1.8,2470.354,13.32,0.03,168.7
2020-09-21T01:25:02,42.805,6.029,0.0,-0.03,-0.037,107.0,107.0,104.0,13.3,1505.3,324.9,-0.7,1.9,2470.356,13.32,0.03,180.0
2020-09-21T01:28:03,42.805,6.029,0.007,-0.052,-0.034,107.0,109.0,103.0,13.4,1505.3,325.9,-0.7,1.8,2470.383,13.32,0.052,172.3
2020-09-21T01:31:04,42.805,6.029,-0.006,-0.028,-0.028,107.0,108.0,104.0,13.3,1505.3,326.3,-0.7,1.8,2470.372,13.32,0.028,192.1
2020-09-21T01:34:02,42.805,6.029,-0.011,-0.012,-0.012,107.0,109.0,104.0,13.4,1505.3,325.0,-0.7,1.9,2470.369,13.32,0.016,222.5
2020-09-21T01:37:03,42.805,6.029,0.009,-0.037,-0.014,108.0,108.0,103.0,13.4,1505.3,328.4,-0.8,1.8,2470.337,13.33,0.038,166.3
2020-09-21T01:40:03,42.805,6.029,0.007,-0.031,-0.026,106.0,109.0,104.0,13.3,1505.3,328.1,-0.7,1.8,2470.397,13.33,0.031,167.3
2020-09-21T01:43:02,42.805,6.029,0.036,-0.058,0.016,108.0,107.0,104.0,13.4,1505.3,327.5,-0.7,1.8,2470.357,13.32,0.068,148.2
2020-09-21T01:46:03,42.805,6.029,0.029,-0.021,-0.024,107.0,108.0,103.0,13.3,1505.3,327.9,-0.7,1.9,2470.337,13.32,0.035,125.9
2020-09-21T01:49:03,42.805,6.029,0.019,-0.017,0.007,106.0,107.0,104.0,13.4,1505.3,327.8,-0.7,1.8,2470.303,13.32,0.025,131.8
2020-09-21T01:52:03,42.805,6.029,0.004,-0.032,-0.047,108.0,108.0,104.0,13.4,1505.3,325.7,-0.7,1.8,2470.37,13.32,0.032,172.9
2020-09-21T01:55:03,42.805,6.029,0.001,-0.029,-0.004,107.0,108.0,105.0,13.4,1505.3,322.9,-0.7,1.8,2470.346,13.32,0.029,178.0
2020-09-21T01:58:02,42.805,6.029,0.004,-0.036,-0.027,109.0,106.0,103.0,13.4,1505.3,324.7,-0.7,1.8,2470.351,13.32,0.036,173.7
2020-09-21T02:04:03,42.805,6.029,0.003,-0.028,-0.017,106.0,109.0,104.0,13.4,1505.2,323.9,-0.8,1.8,2470.367,13.3,0.028,173.9
2020-09-21T02:07:03,42.805,6.029,0.013,-0.033,0.018,106.0,108.0,103.0,13.3,1505.3,324.8,-0.7,1.8,2470.368,13.31,0.035,158.5
2020-09-21T02:10:03,42.805,6.029,0.013,-0.035,0.003,107.0,110.0,105.0,13.4,1505.3,327.5,-0.7,1.9,2470.407,13.32,0.037,159.6
2020-09-21T02:13:03,42.805,6.029,0.007,-0.039,-0.003,108.0,108.0,105.0,13.4,1505.3,323.4,-0.7,1.8,2470.364,13.32,0.039,169.8
2020-09-21T02:16:02,42.805,6.029,0.025,-0.047,-0.024,109.0,108.0,104.0,13.4,1505.3,324.7,-0.7,1.8,2470.343,13.32,0.053,152.0
2020-09-21T02:19:03,42.805,6.029,0.026,-0.036,-0.042,107.0,110.0,104.0,13.3,1505.3,324.2,-0.7,1.8,2470.346,13.32,0.044,144.2
2020-09-21T02:22:03,42.805,6.029,-0.004,-0.047,-0.023,108.0,109.0,104.0,13.3,1505.3,327.9,-0.7,1.8,2470.344,13.32,0.047,184.9
2020-09-21T02:25:03,42.805,6.029,-0.009,-0.028,-0.027,108.0,110.0,103.0,13.3,1505.3,325.5,-0.7,1.8,2470.349,13.32,0.029,197.8
2020-09-21T02:28:03,42.805,6.029,0.023,-0.049,-0.044,107.0,109.0,104.0,13.3,1505.3,325.3,-0.7,1.8,2470.342,13.32,0.054,154.9
2020-09-21T02:31:03,42.805,6.029,0.004,-0.034,-0.021,106.0,109.0,104.0,13.4,1505.3,326.8,-0.7,1.8,2470.349,13.32,0.034,173.3
2020-09-21T02:34:03,42.805,6.029,0.005,-0.018,-0.01,106.0,108.0,104.0,13.4,1505.3,324.3,-0.7,1.8,2470.35,13.32,0.018,164.5
2020-09-21T02:37:02,42.805,6.029,0.0,-0.042,-0.006,107.0,108.0,105.0,13.3,1505.3,325.7,-0.7,1.8,2470.299,13.32,0.042,180.0
2020-09-21T02:40:02,42.805,6.029,0.012,-0.027,0.025,109.0,108.0,104.0,13.3,1505.3,326.5,-0.7,1.8,2470.341,13.32,0.029,156.0
2020-09-21T02:43:03,42.805,6.029,0.006,-0.019,-0.028,108.0,107.0,105.0,13.3,1505.3,326.8,-0.7,1.8,2470.291,13.33,0.019,162.5
2020-09-21T02:46:03,42.805,6.029,-0.002,-0.04,0.004,107.0,107.0,104.0,13.3,1505.3,326.5,-0.7,1.8,2470.297,13.33,0.04,182.9
2020-09-21T02:49:03,42.805,6.029,0.023,-0.025,-0.002,106.0,107.0,104.0,13.4,1505.3,324.8,-0.7,1.8,2470.362,13.33,0.033,137.4
2020-09-21T02:52:03,42.805,6.029,0.01,-0.027,0.024,106.0,107.0,105.0,13.3,1505.3,322.7,-0.7,1.8,2470.313,13.33,0.028,159.7
2020-09-21T02:55:03,42.805,6.029,0.005,-0.033,-0.007,107.0,107.0,103.0,13.4,1505.3,324.0,-0.7,1.8,2470.313,13.32,0.033,171.4
2020-09-21T02:58:03,42.805,6.029,0.014,-0.029,0.006,107.0,107.0,104.0,13.3,1505.3,324.2,-0.7,1.8,2470.316,13.32,0.032,154.2
2020-09-21T03:04:02,42.805,6.029,0.031,-0.043,-0.024,106.0,107.0,104.0,13.3,1505.3,326.5,-0.7,1.8,2470.356,13.31,0.053,144.2
2020-09-21T03:07:02,42.805,6.029,-0.02,-0.032,-0.009,105.0,108.0,102.0,13.4,1505.3,324.5,-0.7,1.8,2470.347,13.31,0.037,212.0
2020-09-21T03:10:02,42.805,6.029,0.007,-0.04,-0.027,107.0,108.0,103.0,13.4,1505.3,326.9,-0.7,1.8,2470.318,13.32,0.04,170.1
2020-09-21T03:13:03,42.805,6.029,0.0,-0.03,-0.038,107.0,107.0,104.0,13.4,1505.3,322.9,-0.7,1.8,2470.342,13.32,0.03,180.0
2020-09-21T03:16:02,42.805,6.029,0.001,-0.015,-0.012,107.0,108.0,104.0,13.4,1505.3,323.3,-0.8,1.8,2470.31,13.32,0.015,176.2
2020-09-21T03:19:02,42.805,6.029,0.019,-0.03,0.005,107.0,108.0,103.0,13.4,1505.3,326.8,-0.7,1.8,2470.311,13.32,0.035,147.7
2020-09-21T03:22:02,42.805,6.029,-0.019,-0.036,-0.051,106.0,108.0,103.0,13.4,1505.3,325.8,-0.6,1.8,2470.3,13.32,0.04,207.8
2020-09-21T03:25:03,42.805,6.029,-0.011,-0.016,-0.015,107.0,108.0,104.0,13.4,1505.3,327.1,-0.7,1.8,2470.269,13.32,0.019,214.5
2020-09-21T03:28:02,42.805,6.029,-0.029,-0.031,-0.035,106.0,108.0,105.0,13.3,1505.3,326.4,-0.7,1.8,2470.291,13.32,0.042,223.1
2020-09-21T03:31:06,42.805,6.029,-0.003,-0.021,-0.014,107.0,108.0,103.0,13.4,1505.3,322.7,-0.7,1.8,2470.299,13.32,0.021,188.1
2020-09-21T03:34:03,42.805,6.029,0.005,-0.019,0.0,106.0,107.0,103.0,13.3,1505.3,327.0,-0.7,1.8,2470.257,13.33,0.019,165.3
2020-09-21T03:37:03,42.805,6.029,-0.005,-0.024,-0.013,105.0,107.0,103.0,13.4,1505.3,327.1,-0.7,1.8,2470.294,13.33,0.024,191.8
2020-09-21T03:40:03,42.805,6.029,0.014,-0.035,-0.012,107.0,108.0,104.0,13.4,1505.3,326.0,-0.7,1.8,2470.291,13.33,0.037,158.2
2020-09-21T03:43:03,42.805,6.029,0.006,-0.013,-0.002,105.0,107.0,104.0,13.4,1505.3,326.8,-0.7,1.8,2470.283,13.33,0.014,155.2
2020-09-21T03:46:03,42.805,6.029,-0.002,-0.028,-0.007,106.0,108.0,102.0,13.3,1505.3,327.0,-0.7,1.8,2470.256,13.33,0.028,184.1
2020-09-21T03:49:03,42.805,6.029,-0.007,-0.008,-0.015,106.0,108.0,103.0,13.4,1505.3,327.3,-0.7,1.8,2470.274,13.33,0.01,221.2
2020-09-21T03:52:03,42.805,6.029,-0.004,-0.036,-0.039,105.0,107.0,103.0,13.3,1505.3,326.8,-0.7,1.8,2470.266,13.33,0.036,186.3
2020-09-21T03:55:02,42.805,6.029,-0.01,-0.032,-0.023,106.0,108.0,103.0,13.4,1505.3,323.8,-0.7,1.8,2470.3,13.33,0.033,197.4
2020-09-21T03:58:03,42.805,6.029,0.007,-0.007,-0.016,105.0,108.0,103.0,13.4,1505.3,323.0,-0.7,1.8,2470.329,13.33,0.009,135.0
2020-09-21T04:04:02,42.805,6.029,0.005,-0.034,-0.01,106.0,107.0,104.0,13.4,1505.3,325.5,-0.8,1.8,2470.339,13.31,0.034,171.6
2020-09-21T04:07:02,42.805,6.029,-0.003,-0.037,-0.004,107.0,107.0,105.0,13.4,1505.3,324.6,-0.7,1.8,2470.276,13.31,0.037,184.6
2020-09-21T04:10:03,42.805,6.029,0.0,-0.035,-0.025,105.0,107.0,103.0,13.3,1505.3,324.4,-0.7,1.8,2470.303,13.32,0.035,180.0
2020-09-21T04:13:03,42.805,6.029,-0.009,-0.022,-0.011,107.0,108.0,103.0,13.4,1505.3,326.5,-0.7,1.8,2470.321,13.32,0.023,202.2
2020-09-21T04:16:03,42.805,6.029,0.013,-0.012,-0.02,106.0,108.0,103.0,13.4,1505.3,323.4,-0.7,1.8,2470.28,13.32,0.017,132.7
2020-09-21T04:19:03,42.805,6.029,-0.003,-0.013,-0.005,105.0,107.0,102.0,13.4,1505.3,323.0,-0.7,1.8,2470.275,13.32,0.013,193.0
2020-09-21T04:22:02,42.805,6.029,-0.003,-0.012,-0.04,105.0,107.0,102.0,13.4,1505.3,326.1,-0.7,1.9,2470.296,13.33,0.012,194.0
2020-09-21T04:25:03,42.805,6.029,0.001,-0.023,-0.039,105.0,106.0,102.0,13.4,1505.3,327.7,-0.7,1.8,2470.285,13.33,0.023,177.5
2020-09-21T04:28:03,42.805,6.029,-0.033,-0.028,-0.016,104.0,107.0,103.0,13.4,1505.3,327.5,-0.7,1.8,2470.324,13.33,0.043,229.7
2020-09-21T04:31:03,42.805,6.029,0.003,-0.032,-0.016,105.0,108.0,102.0,13.4,1505.3,324.9,-0.7,1.8,2470.29,13.33,0.032,174.6
2020-09-21T04:34:02,42.805,6.029,-0.016,-0.02,-0.001,106.0,108.0,103.0,13.3,1505.3,326.7,-0.7,1.8,2470.308,13.33,0.025,218.7
2020-09-21T04:37:02,42.805,6.029,0.009,-0.023,0.0,106.0,107.0,101.0,13.3,1505.3,322.8,-0.7,1.8,2470.311,13.33,0.024,158.6
2020-09-21T04:40:03,42.805,6.029,0.0,-0.03,-0.005,106.0,106.0,102.0,13.3,1505.3,324.3,-0.7,1.8,2470.281,13.33,0.03,180.0
2020-09-21T04:43:03,42.805,6.029,0.006,-0.016,0.0,105.0,106.0,103.0,13.4,1505.3,325.1,-0.7,1.8,2470.264,13.33,0.017,159.4
2020-09-21T04:46:03,42.805,6.029,-0.017,-0.017,-0.03,105.0,107.0,103.0,13.4,1505.3,328.2,-0.7,1.8,2470.293,13.33,0.024,225.0
2020-09-21T04:49:03,42.805,6.029,-0.001,-0.032,-0.028,105.0,107.0,101.0,13.4,1505.3,328.4,-0.7,1.8,2470.304,13.33,0.032,181.8
2020-09-21T04:52:02,42.805,6.029,0.0,-0.016,-0.031,106.0,106.0,102.0,13.3,1505.3,324.2,-0.7,1.9,2470.247,13.33,0.016,180.0
2020-09-21T04:55:02,42.805,6.029,0.026,-0.035,-0.022,103.0,107.0,102.0,13.4,1505.3,323.4,-0.7,1.8,2470.291,13.33,0.043,143.4
2020-09-21T04:58:03,42.805,6.029,0.012,-0.028,0.033,106.0,106.0,102.0,13.3,1505.3,326.2,-0.7,1.8,2470.222,13.33,0.03,156.8
2020-09-21T05:04:03,42.805,6.029,0.002,-0.032,-0.001,104.0,107.0,102.0,13.4,1505.3,324.7,-0.7,1.8,2470.275,13.31,0.032,176.4
2020-09-21T05:07:02,42.805,6.029,0.017,-0.022,-0.017,106.0,107.0,102.0,13.4,1505.3,326.5,-0.7,1.8,2470.283,13.31,0.027,142.3
2020-09-21T05:10:02,42.805,6.029,0.011,-0.031,0.004,106.0,106.0,102.0,13.4,1505.3,326.3,-0.7,1.8,2470.307,13.32,0.032,160.5
2020-09-21T05:13:02,42.805,6.029,-0.009,-0.023,-0.045,106.0,105.0,103.0,13.4,1505.3,324.9,-0.7,1.8,2470.319,13.32,0.024,201.4
2020-09-21T05:16:04,42.805,6.029,0.005,-0.018,0.036,104.0,106.0,101.0,13.4,1505.3,326.0,-0.7,1.9,2470.294,13.32,0.018,164.5
2020-09-21T05:19:02,42.805,6.029,0.005,-0.026,0.005,105.0,106.0,103.0,13.3,1505.3,328.5,-0.7,1.8,2470.291,13.32,0.026,169.1
2020-09-21T05:22:02,42.805,6.029,0.0,-0.009,0.031,105.0,105.0,103.0,13.3,1505.3,326.6,-0.7,1.8,2470.304,13.33,0.009,180.0
2020-09-21T05:25:03,42.805,6.029,0.019,-0.036,-0.027,106.0,105.0,101.0,13.4,1505.3,325.1,-0.7,1.8,2470.293,13.33,0.04,152.2
2020-09-21T05:28:03,42.805,6.029,-0.008,-0.035,-0.016,104.0,105.0,102.0,13.4,1505.3,324.6,-0.7,1.8,2470.289,13.33,0.035,192.9
2020-09-21T05:31:02,42.805,6.029,0.016,-0.032,-0.009,104.0,105.0,102.0,13.3,1505.3,325.4,-0.7,1.8,2470.283,13.33,0.035,153.4
2020-09-21T05:34:03,42.805,6.029,-0.007,-0.03,-0.054,105.0,107.0,103.0,13.4,1505.3,325.5,-0.8,1.8,2470.33,13.33,0.03,193.1
2020-09-21T05:37:03,42.805,6.029,-0.004,-0.033,-0.017,104.0,106.0,102.0,13.4,1505.3,325.3,-0.7,1.9,2470.326,13.33,0.033,186.9
2020-09-21T05:40:03,42.805,6.029,0.0,-0.03,-0.032,104.0,105.0,102.0,13.3,1505.3,324.8,-0.7,1.8,2470.295,13.33,0.03,180.0
2020-09-21T05:43:02,42.805,6.029,-0.01,-0.012,-0.002,104.0,105.0,103.0,13.4,1505.3,325.0,-0.7,1.9,2470.274,13.33,0.015,219.8
2020-09-21T05:46:03,42.805,6.029,0.005,-0.015,-0.007,104.0,106.0,102.0,13.4,1505.3,324.5,-0.8,1.8,2470.325,13.33,0.015,161.6
2020-09-21T05:49:03,42.805,6.029,0.008,-0.024,-0.018,105.0,106.0,102.0,13.3,1505.3,324.8,-0.7,1.8,2470.312,13.33,0.025,161.6
2020-09-21T05:52:03,42.805,6.029,0.013,-0.012,0.014,105.0,106.0,102.0,13.4,1505.3,325.4,-0.7,1.9,2470.313,13.33,0.017,132.7
2020-09-21T05:55:03,42.805,6.029,0.004,-0.038,-0.006,103.0,106.0,103.0,13.4,1505.3,325.9,-0.7,1.8,2470.312,13.33,0.038,174.0
2020-09-21T05:58:03,42.805,6.029,-0.018,-0.01,-0.009,105.0,106.0,102.0,13.4,1505.3,326.4,-0.7,1.9,2470.341,13.33,0.02,240.9
2020-09-21T06:04:02,42.805,6.029,0.022,-0.041,-0.02,104.0,107.0,102.0,13.3,1505.3,326.2,-0.7,1.8,2470.357,13.31,0.046,151.8
2020-09-21T06:07:02,42.805,6.029,0.036,-0.034,-0.002,105.0,106.0,102.0,13.4,1505.3,324.6,-0.7,1.8,2470.355,13.31,0.049,133.4
2020-09-21T06:10:03,42.805,6.029,0.013,-0.012,-0.009,106.0,103.0,102.0,13.4,1505.3,324.6,-0.7,1.8,2470.355,13.32,0.017,132.7
2020-09-21T06:13:03,42.805,6.029,0.02,-0.029,0.014,105.0,106.0,102.0,13.4,1505.3,322.9,-0.8,1.8,2470.356,13.32,0.035,145.4
2020-09-21T06:16:03,42.805,6.029,0.025,-0.035,0.003,105.0,106.0,102.0,13.3,1505.3,327.6,-0.7,1.9,2470.346,13.32,0.043,144.5
2020-09-21T06:19:03,42.805,6.029,-0.008,-0.028,-0.035,104.0,107.0,103.0,13.4,1505.3,326.5,-0.7,1.8,2470.36,13.33,0.029,195.9
2020-09-21T06:22:02,42.805,6.029,0.039,-0.02,0.001,106.0,105.0,103.0,13.3,1505.3,325.2,-0.7,1.8,2470.337,13.33,0.043,117.1
2020-09-21T06:25:03,42.805,6.029,0.021,-0.026,-0.007,104.0,106.0,103.0,13.4,1505.3,324.1,-0.7,1.8,2470.371,13.33,0.033,141.1
2020-09-21T06:28:02,42.805,6.029,0.015,-0.01,-0.003,105.0,107.0,102.0,13.4,1505.3,326.7,-0.7,1.8,2470.36,13.33,0.018,123.7
2020-09-21T06:31:02,42.805,6.029,0.013,-0.012,-0.006,104.0,107.0,101.0,13.4,1505.3,324.3,-0.7,1.8,2470.368,13.33,0.017,132.7
2020-09-21T06:34:03,42.805,6.029,-0.009,-0.022,-0.025,104.0,108.0,102.0,13.4,1505.3,324.9,-0.7,1.9,2470.365,13.33,0.023,202.2
2020-09-21T06:37:03,42.805,6.029,0.024,-0.028,-0.007,104.0,108.0,103.0,13.3,1505.3,326.7,-0.7,1.8,2470.356,13.33,0.036,139.4
2020-09-21T06:40:03,42.805,6.029,0.022,-0.025,-0.026,105.0,107.0,102.0,13.3,1505.3,327.4,-0.7,1.8,2470.365,13.33,0.033,138.7
2020-09-21T06:43:03,42.805,6.029,0.056,-0.016,0.001,105.0,107.0,101.0,13.4,1505.3,327.9,-0.7,1.8,2470.374,13.33,0.058,105.9
2020-09-21T06:46:04,42.805,6.029,-0.009,-0.023,-0.018,104.0,107.0,102.0,13.4,1505.3,327.4,-0.7,1.9,2470.37,13.33,0.024,201.4
2020-09-21T06:49:03,42.805,6.029,0.006,-0.02,-0.007,103.0,108.0,103.0,13.4,1505.3,326.6,-0.7,1.9,2470.37,13.33,0.02,163.3
2020-09-21T06:52:03,42.805,6.029,0.02,-0.028,-0.002,104.0,105.0,103.0,13.4,1505.3,326.6,-0.7,1.8,2470.414,13.33,0.034,144.5
2020-09-21T06:58:03,42.805,6.029,0.006,-0.018,-0.013,102.0,104.0,104.0,13.4,1505.3,324.8,-0.7,1.8,2470.448,13.31,0.018,161.6
2020-09-21T07:04:03,42.805,6.029,0.0,-0.014,-0.021,103.0,106.0,102.0,13.4,1505.2,323.1,-0.8,1.8,2470.509,13.3,0.014,180.0
2020-09-21T07:07:03,42.805,6.029,0.035,-0.039,-0.011,105.0,105.0,101.0,13.4,1505.3,324.3,-0.7,1.8,2470.439,13.31,0.052,138.1
2020-09-21T07:10:03,42.805,6.029,0.021,-0.01,-0.005,104.0,106.0,102.0,13.3,1505.3,327.3,-0.7,1.8,2470.432,13.31,0.023,115.5
2020-09-21T07:13:03,42.805,6.029,0.054,-0.028,0.028,101.0,106.0,100.0,13.3,1505.3,326.5,-0.7,1.9,2470.439,13.32,0.06,117.4
2020-09-21T07:16:03,42.805,6.029,0.017,-0.016,-0.014,104.0,106.0,103.0,13.4,1505.3,326.4,-0.7,1.9,2470.418,13.32,0.023,133.3
2020-09-21T07:19:03,42.805,6.029,0.019,-0.021,-0.025,104.0,106.0,102.0,13.4,1505.3,325.9,-0.7,1.8,2470.419,13.32,0.028,137.9
2020-09-21T07:22:03,42.805,6.029,0.037,-0.031,0.019,104.0,106.0,102.0,13.4,1505.3,323.8,-0.7,1.8,2470.454,13.32,0.048,130.0
2020-09-21T07:25:03,42.805,6.029,0.017,-0.015,0.01,104.0,107.0,102.0,13.3,1505.3,323.5,-0.7,1.8,2470.432,13.33,0.022,131.4
2020-09-21T07:28:03,42.805,6.029,-0.005,-0.007,0.019,106.0,106.0,101.0,13.4,1505.3,325.8,-0.7,1.8,2470.446,13.33,0.008,215.5
2020-09-21T07:31:03,42.805,6.029,0.003,-0.022,0.014,106.0,106.0,101.0,13.4,1505.3,327.4,-0.7,1.8,2470.465,13.33,0.022,172.2
2020-09-21T07:34:03,42.805,6.029,0.004,-0.013,-0.023,105.0,106.0,103.0,13.4,1505.3,326.5,-0.7,1.8,2470.443,13.33,0.013,162.9
2020-09-21T07:37:03,42.805,6.029,0.013,-0.032,-0.021,105.0,106.0,102.0,13.3,1505.3,324.8,-0.7,1.8,2470.44,13.33,0.034,157.9
2020-09-21T07:40:03,42.805,6.029,0.032,-0.039,0.002,105.0,106.0,103.0,13.4,1505.3,327.7,-0.7,1.8,2470.427,13.33,0.05,140.6
2020-09-21T07:43:03,42.805,6.029,0.003,-0.025,-0.016,106.0,107.0,102.0,13.4,1505.3,324.7,-0.7,1.8,2470.427,13.33,0.025,173.2
2020-09-21T07:46:03,42.805,6.029,0.007,-0.016,-0.004,105.0,106.0,102.0,13.3,1505.3,324.5,-0.7,1.9,2470.453,13.33,0.017,156.4
2020-09-21T07:49:03,42.805,6.029,-0.007,-0.011,-0.029,105.0,106.0,103.0,13.4,1505.3,324.2,-0.7,1.8,2470.455,13.33,0.013,212.5
2020-09-21T07:52:03,42.805,6.029,-0.008,-0.029,-0.049,105.0,105.0,103.0,13.4,1505.3,324.3,-0.7,1.8,2470.465,13.33,0.03,195.4
2020-09-21T07:55:03,42.805,6.029,0.012,-0.03,-0.023,103.0,107.0,102.0,13.4,1505.3,324.6,-0.7,1.8,2470.448,13.33,0.032,158.2
2020-09-21T07:58:03,42.805,6.029,0.037,-0.022,0.008,105.0,105.0,101.0,13.4,1505.3,324.4,-0.7,1.9,2470.421,13.33,0.043,120.7
2020-09-21T08:04:02,42.805,6.029,0.019,-0.048,-0.029,104.0,106.0,103.0,13.4,1505.3,325.4,-0.7,1.8,2470.5,13.31,0.051,158.4
2020-09-21T08:07:02,42.805,6.029,0.022,-0.015,-0.005,104.0,106.0,101.0,13.3,1505.3,326.4,-0.7,1.8,2470.502,13.31,0.026,124.3
2020-09-21T08:10:03,42.805,6.029,0.012,-0.044,-0.041,104.0,106.0,102.0,13.3,1505.3,326.8,-0.7,1.8,2470.489,13.32,0.045,164.7
2020-09-21T08:13:03,42.805,6.029,0.041,-0.04,-0.012,103.0,108.0,102.0,13.3,1505.3,323.6,-0.7,1.8,2470.487,13.32,0.057,134.3
2020-09-21T08:16:03,42.805,6.029,0.001,-0.019,-0.036,103.0,106.0,101.0,13.4,1505.3,323.4,-0.7,1.8,2470.494,13.32,0.019,177.0
2020-09-21T08:19:03,42.805,6.029,0.009,-0.028,-0.032,105.0,108.0,101.0,13.4,1505.3,326.5,-0.7,1.8,2470.499,13.32,0.029,162.2
2020-09-21T08:22:03,42.805,6.029,0.011,-0.042,-0.02,103.0,106.0,103.0,13.4,1505.3,327.2,-0.7,1.8,2470.492,13.32,0.043,165.3
2020-09-21T08:25:03,42.805,6.029,0.007,-0.029,-0.008,104.0,106.0,102.0,13.4,1505.3,325.1,-0.7,1.8,2470.512,13.32,0.029,166.4
2020-09-21T08:28:03,42.805,6.029,0.009,-0.011,0.002,104.0,105.0,101.0,13.4,1505.3,325.2,-0.7,1.8,2470.471,13.33,0.014,140.7
2020-09-21T08:31:04,42.805,6.029,-0.014,-0.023,-0.065,107.0,106.0,102.0,13.4,1505.3,326.3,-0.7,1.9,2470.513,13.33,0.026,211.3
2020-09-21T08:34:03,42.805,6.029,0.005,-0.015,0.006,103.0,105.0,102.0,13.3,1505.3,326.2,-0.7,1.8,2470.496,13.33,0.015,161.6
2020-09-21T08:37:02,42.805,6.029,0.032,-0.031,-0.016,105.0,106.0,103.0,13.4,1505.3,324.3,-0.7,1.8,2470.474,13.33,0.044,134.1
2020-09-21T08:40:03,42.805,6.029,0.008,-0.038,-0.011,105.0,106.0,102.0,13.4,1505.3,324.3,-0.7,1.8,2470.468,13.33,0.038,168.1
2020-09-21T08:43:03,42.805,6.029,0.004,-0.041,-0.018,104.0,107.0,103.0,13.4,1505.3,326.4,-0.7,1.8,2470.479,13.33,0.041,174.4
2020-09-21T08:46:03,42.805,6.029,0.024,-0.033,-0.036,105.0,106.0,102.0,13.4,1505.3,328.2,-0.7,1.8,2470.471,13.33,0.04,144.0
2020-09-21T08:49:03,42.805,6.029,0.005,-0.027,-0.045,104.0,107.0,101.0,13.4,1505.3,326.4,-0.7,1.8,2470.47,13.33,0.027,169.5
2020-09-21T08:52:03,42.805,6.029,-0.034,-0.016,-0.035,103.0,106.0,102.0,13.3,1505.3,325.0,-0.6,1.8,2470.498,13.33,0.037,244.8
2020-09-21T08:55:03,42.805,6.029,0.039,-0.027,-0.021,105.0,106.0,102.0,13.4,1505.3,323.6,-0.7,1.8,2470.524,13.33,0.047,124.7
2020-09-21T08:58:03,42.805,6.029,0.011,-0.031,-0.014,104.0,107.0,103.0,13.4,1505.3,324.8,-0.7,1.9,2470.501,13.33,0.032,160.5
2020-09-21T09:04:03,42.805,6.029,0.013,-0.014,0.007,104.0,106.0,101.0,13.4,1505.3,327.0,-0.7,1.9,2470.54,13.31,0.019,137.1
2020-09-21T09:07:03,42.805,6.029,0.027,-0.02,-0.005,103.0,106.0,101.0,13.3,1505.3,325.8,-0.7,1.8,2470.531,13.31,0.033,126.5
2020-09-21T09:10:03,42.805,6.029,0.014,-0.043,-0.008,103.0,105.0,103.0,13.3,1505.3,325.7,-0.7,1.8,2470.488,13.32,0.045,162.0
2020-09-21T09:13:02,42.805,6.029,0.012,-0.021,-0.01,103.0,107.0,102.0,13.4,1505.3,326.8,-0.7,1.8,2470.519,13.32,0.024,150.3
2020-09-21T09:16:02,42.805,6.029,0.009,-0.032,-0.008,105.0,105.0,103.0,13.4,1505.3,326.7,-0.7,1.8,2470.511,13.32,0.033,164.3
2020-09-21T09:19:03,42.805,6.029,0.031,-0.036,-0.006,104.0,106.0,101.0,13.4,1505.3,325.5,-0.7,1.9,2470.474,13.32,0.047,139.3
2020-09-21T09:22:02,42.805,6.029,0.016,-0.046,-0.008,104.0,105.0,103.0,13.3,1505.3,327.1,-0.7,1.9,2470.518,13.32,0.048,160.8
2020-09-21T09:25:03,42.805,6.029,0.011,-0.039,0.029,104.0,104.0,101.0,13.4,1505.3,326.3,-0.7,1.9,2470.472,13.32,0.04,164.3
2020-09-21T09:28:03,42.805,6.029,0.019,-0.029,-0.021,103.0,106.0,101.0,13.4,1505.3,325.8,-0.7,1.8,2470.491,13.32,0.034,146.8
2020-09-21T09:31:03,42.805,6.029,0.008,-0.023,-0.009,105.0,105.0,102.0,13.3,1505.3,326.5,-0.7,1.9,2470.487,13.32,0.024,160.8
2020-09-21T09:34:03,42.805,6.029,-0.003,-0.045,-0.006,105.0,105.0,102.0,13.3,1505.3,326.0,-0.7,1.8,2470.504,13.33,0.045,183.8
2020-09-21T09:37:03,42.805,6.029,0.002,-0.032,-0.029,104.0,105.0,102.0,13.3,1505.3,326.9,-0.7,1.9,2470.493,13.33,0.032,176.4
2020-09-21T09:40:03,42.805,6.029,-0.02,-0.029,0.008,107.0,107.0,103.0,13.4,1505.3,324.2,-0.7,1.8,2470.511,13.32,0.035,214.6
2020-09-21T09:43:03,42.805,6.029,-0.023,-0.02,-0.014,104.0,107.0,102.0,13.4,1505.3,324.5,-0.7,1.9,2470.481,13.33,0.03,229.0
2020-09-21T09:46:03,42.805,6.029,0.015,-0.023,-0.003,105.0,106.0,103.0,13.3,1505.3,322.8,-0.7,1.8,2470.513,13.33,0.027,146.9
2020-09-21T09:49:03,42.805,6.029,0.018,-0.028,-0.034,107.0,108.0,102.0,13.3,1505.3,326.7,-0.7,1.8,2470.537,13.33,0.033,147.3
2020-09-21T09:52:03,42.805,6.029,0.0,-0.005,-0.009,104.0,107.0,102.0,13.4,1505.3,323.2,-0.7,1.8,2470.491,13.33,0.005,180.0
2020-09-21T09:55:03,42.805,6.029,-0.008,-0.038,-0.047,104.0,107.0,102.0,13.4,1505.3,326.6,-0.7,1.8,2470.55,13.33,0.038,191.9
2020-09-21T09:58:03,42.805,6.029,0.024,-0.023,-0.013,105.0,107.0,102.0,13.4,1505.3,326.2,-0.7,1.8,2470.472,13.33,0.033,133.8